Overview Statistics Trail Chart Weather Telemetry Raw packets
 

This is the latest recevied weather packets stored in our database for station/object S56VIL-11. If no packets are shown the sender has not sent any weather packets the latest 10 day(s).

<< 11 12 13 14 15 16 17 >>
Time Temp. Humidity Pressure Rain* Wind** Luminosity Snow
1788340193 28.33° C 58% 1034.1 hPa - - - -
1788339293 27.78° C 58% 1034.1 hPa - - - -
1788338393 26.11° C 59% 1034 hPa - - - -
1788337493 24.44° C 59% 1034 hPa - - - -
1788336593 21.11° C 61% 1033.8 hPa - - - -
1788335693 19.44° C 62% 1033.9 hPa - - - -
1788334793 18.89° C 62% 1033.9 hPa - - - -
1788333893 18.89° C 62% 1033.8 hPa - - - -
1788332993 18.33° C 62% 1033.8 hPa - - - -
1788332093 17.78° C 63% 1033.7 hPa - - - -
1788331192 17.78° C 63% 1033.8 hPa - - - -
1788330292 17.78° C 63% 1033.8 hPa - - - -
1788329392 17.78° C 63% 1033.6 hPa - - - -
1788328492 16.67° C 63% 1033.6 hPa - - - -
1788327592 16.67° C 63% 1033.6 hPa - - - -
1788326692 16.67° C 63% 1033.5 hPa - - - -
1788325792 16.67° C 63% 1033.4 hPa - - - -
1788324892 16.67° C 63% 1033.5 hPa - - - -
1788323992 16.67° C 63% 1033.4 hPa - - - -
1788323092 16.11° C 63% 1033.3 hPa - - - -
1788322192 16.11° C 63% 1033.3 hPa - - - -
1788321292 16.67° C 63% 1033.2 hPa - - - -
1788320392 16.11° C 63% 1033.3 hPa - - - -
1788319492 16.67° C 63% 1033.2 hPa - - - -
1788318592 16.67° C 62% 1033.3 hPa - - - -

* Rain since midnight (hover to see other rain measurements)
** Current wind speed in m/s (hover to see current wind gust speed)